This demonstration page uses our WeatherBlox Daily Observations layout. Learn more.

Left ArrowRight Arrow

39.08367, -84.50855

Hourly Observations for April 4, 2018

Temp ( °F °C ) Dew Point ( °F °C ) Humidity (%) Winds ( mph kmh ) Pressure ( in mb ) Visibility ( mi km ) Precip ( " mm )
12:18 am 00:18 Cloudy with Light Rain 62 16.7 60 15.6 93 93 SW 12 19 29.56 1001 7 11 0.03 0.76
12:38 am 00:38 Cloudy 54 12.2 53 11.7 97 97 W 23 37 29.62 1003 10 16 0.04 1.02
12:53 am 00:53 Cloudy 52 11.1 51 10.6 97 97 W 23 37 29.62 1003 10 16 0.04 1.02
1:53 am 01:53 Cloudy 48 8.9 43 6.1 83 83 WNW 21 33 29.70 1006 10 16 N/A
2:53 am 02:53 Cloudy 47 8.3 39 3.9 74 74 W 21 33 29.74 1007 10 16 N/A
3:53 am 03:53 Cloudy 44 6.7 36 2.2 73 73 W 24 39 29.78 1008 10 16 N/A
4:07 am 04:07 Cloudy 43 6.1 35 1.7 74 74 W 22 35 29.83 1010 10 16 N/A
4:53 am 04:53 Cloudy 42 5.6 33 0.6 71 71 W 24 39 29.81 1010 10 16 N/A
5:21 am 05:21 Cloudy 42 5.6 34 1.1 73 73 W 17 28 29.85 1011 10 16 N/A
5:53 am 05:53 Cloudy 41 5 30 -1.1 65 65 W 21 33 29.86 1011 10 16 N/A
6:53 am 06:53 Cloudy 39 3.9 27 -2.8 62 62 W 26 43 29.91 1013 10 16 N/A
7:53 am 07:53 Cloudy 38 3.3 27 -2.8 65 65 W 17 28 29.96 1015 10 16 N/A
8:53 am 08:53 Cloudy 37 2.8 24 -4.4 59 59 W 20 31 30.00 1016 10 16 N/A
9:53 am 09:53 Cloudy 37 2.8 26 -3.3 65 65 W 17 28 30.03 1017 10 16 N/A
10:53 am 10:53 Cloudy 37 2.8 24 -4.4 59 59 W 26 43 30.07 1018 10 16 N/A
11:53 am 11:53 Cloudy 37 2.8 25 -3.9 62 62 W 16 26 30.12 1020 10 16 N/A
12:53 pm 12:53 Cloudy 37 2.8 24 -4.4 59 59 W 16 26 30.14 1021 10 16 N/A
1:53 pm 13:53 Cloudy 39 3.9 25 -3.9 57 57 W 12 19 30.16 1021 10 16 N/A
2:53 pm 14:53 Cloudy 39 3.9 24 -4.4 55 55 W 18 30 30.17 1022 10 16 N/A
3:53 pm 15:53 Cloudy 39 3.9 24 -4.4 55 55 WNW 14 22 30.19 1022 10 16 N/A
4:53 pm 16:53 Cloudy 38 3.3 24 -4.4 57 57 W 13 20 30.21 1023 10 16 N/A
5:53 pm 17:53 Cloudy 37 2.8 24 -4.4 59 59 W 15 24 30.23 1024 10 16 N/A
6:53 pm 18:53 Cloudy 37 2.8 23 -5 57 57 W 15 24 30.25 1024 10 16 N/A
7:53 pm 19:53 Cloudy 36 2.2 24 -4.4 62 62 W 10 17 30.27 1025 10 16 N/A
8:53 pm 20:53 Cloudy 36 2.2 23 -5 59 59 W 13 20 30.28 1026 10 16 N/A
9:53 pm 21:53 Cloudy 35 1.7 23 -5 61 61 W 14 22 30.30 1026 10 16 N/A
10:53 pm 22:53 Cloudy 35 1.7 23 -5 61 61 WNW 10 17 30.31 1026 10 16 N/A
11:53 pm 23:53 Cloudy 34 1.1 21 -6.1 59 59 W 14 22 30.30 1026 10 16 N/A

Powered by AerisWeather